Flag for Germany Weather past 2 weeks in Troisdorf, North Rhine-Westphalia, Germany

Now
55 °F

Scattered showers. Partly cloudy.


Feels Like: 55 °F
Forecast: 50 / 65 °F
Wind: 2 mph from North

Location: Koeln / Bonn

Current Time: Sep 2, 2015 at 10:01:48 PM

Latest Report: Sep 2, 2015 at 9:20 PM


Visibility: N/A

Pressure: 30.01 "Hg

Humidity: 88%

Dew point: 52 °F

Location of TroisdorfLocation

Historic Weather in Troisdorf — Graph

°F

Troisdorf temperature yesterday

Maximum temperature yesterday: 72 °F (at 12:20 AM)
Minimum temperature yesterday: 57 °F (at 9:50 PM)
Average temperature yesterday: 63 °F

Past Weeks' High & Low Weather Summary

 TemperatureHumidityPressure
High93 °F (Aug 30, 4:20 PM)100% (Sep 1, 8:20 AM)30.27 "Hg (Sep 1, 8:20 AM)
Low46 °F (Aug 19, 6:50 AM)26% (Aug 23, 3:20 PM)29.56 "Hg (Aug 24, 2:20 PM)
Average66 °F68%29.99 "Hg
* Reported Aug 18 8:20 PM — Sep 2 8:50 PM, Troisdorf, Weather by CustomWeather, © 2015

Note: Actual official high and low records may vary slightly from our data, if they occured in-between our weather recording intervals... More about our weather records

Advertising

Troisdorf weather history for previous 24 hours

 ConditionsComfort  
Time TempWeatherWind HumidityBarometerVisibility
8:50 PM
Wed, Sep 2
57 °FSunny.3 mph82%30.01 "Hg10 mi
8:20 PM59 °FSunny.3 mph77%30.01 "Hg10 mi
7:50 PM61 °FPartly sunny.6 mph72%30.01 "HgN/A
7:20 PM61 °FPartly sunny.6 mph72%30.01 "HgN/A
6:50 PM63 °FScattered showers. Scattered clouds.6 mph68%29.98 "HgN/A
6:20 PM63 °FBroken clouds.8 mph68%29.98 "HgN/A
5:20 PM64 °FScattered clouds.8 mph68%29.98 "HgN/A
4:50 PM64 °FScattered clouds.6 mph64%29.98 "HgN/A
4:20 PM64 °FScattered clouds.6 mph64%30.01 "HgN/A
3:50 PM66 °FScattered clouds.5 mph64%30.01 "HgN/A
3:20 PM64 °FScattered clouds.5 mph68%30.01 "HgN/A
2:50 PM63 °FScattered clouds.6 mph73%30.01 "HgN/A
2:20 PM63 °FScattered clouds.3 mph73%30.01 "HgN/A
1:50 PM61 °FScattered showers. Scattered clouds.2 mph77%30.04 "HgN/A
1:20 PM61 °FRain showers. Partly sunny.6 mph77%30.04 "HgN/A
12:50 PM64 °FSprinkles. Scattered clouds.5 mph60%30.04 "HgN/A
12:20 PM64 °FScattered clouds.3 mph64%30.04 "HgN/A
11:50 AM63 °FScattered clouds.5 mph68%30.04 "HgN/A
11:20 AM63 °FScattered clouds.3 mph73%30.04 "HgN/A
10:50 AM61 °FScattered clouds.2 mph77%30.04 "HgN/A
10:20 AM57 °FScattered clouds.3 mph88%30.04 "HgN/A
9:50 AM57 °FScattered clouds.5 mph88%30.04 "HgN/A
9:20 AM55 °FScattered clouds.6 mph100%30.04 "HgN/A
8:50 AM55 °FScattered clouds.6 mph94%30.07 "HgN/A
8:20 AM54 °FScattered clouds.2 mph100%30.07 "HgN/A
7:50 AM52 °FFog.3 mph100%30.07 "Hg5 mi
7:20 AM52 °FFog.3 mph100%30.07 "Hg5 mi
6:50 AM52 °FFog.2 mph100%30.07 "HgN/A
6:20 AM52 °FFog.5 mph100%30.07 "HgN/A
5:50 AM52 °FFog.2 mph100%30.07 "HgN/A
5:20 AM50 °FFog.3 mph94%30.07 "HgN/A
4:50 AM52 °FFog.1 mph100%30.07 "HgN/A
4:20 AM52 °FFog.1 mph100%30.07 "HgN/A
3:50 AM54 °FFog.1 mph94%30.07 "HgN/A
3:20 AM54 °FPassing clouds.1 mph94%30.07 "HgN/A
2:50 AM54 °FPassing clouds.1 mph94%30.07 "HgN/A
2:20 AM54 °FFog.1 mph94%30.07 "HgN/A
1:50 AM54 °FFog.3 mph94%30.07 "HgN/A
1:20 AM54 °FFog.2 mph94%30.07 "HgN/A
12:50 AM55 °FFog.3 mph94%30.07 "HgN/A
11:20 PM
Tue, Sep 1
59 °FPassing clouds.8 mph88%30.04 "HgN/A
10:50 PM59 °FPartly cloudy.3 mph88%30.04 "HgN/A
10:20 PM57 °FFog.2 mph94%30.04 "HgN/A
Weather by CustomWeather, © 2015

See weather overviewHow to use our weather pages